EWG1918 BKPR-LJLJ

Flight info

Callsign EWG1918
Flight time 1h 23m
Altitude 19000
Route SARAX1D SARAX T217 TETOV/N0459F380 DCT MAVAR DCT KOFER DCT SPL DCT DARZA
Aircraft A320/M-SDE3FGHIRWY/LB1

Departure

Time 2026-04-22 14:55
Airport Priština Adem Jashari International Airport (BKPR)

Arrival

Time 2026-04-22 16:18
Airport Ljubljana Jože Pučnik Airport (LJLJ)
Time Latitude Longitude Altitude Speed Heading
2026-04-22 14:32 42.57396 21.03151 1790 ft 0 kts 265°
2026-04-22 14:45 42.57397 21.03177 1787 ft 4 kts 261°
2026-04-22 14:45 42.57404 21.03212 1786 ft 4 kts 239°
2026-04-22 14:45 42.57420 21.03232 1785 ft 2 kts 177°
2026-04-22 14:46 42.57421 21.03231 1785 ft 0 kts 175°
2026-04-22 14:48 42.57402 21.03233 1786 ft 7 kts 175°
2026-04-22 14:48 42.57356 21.03239 1787 ft 6 kts 174°
2026-04-22 14:48 42.57327 21.03267 1787 ft 4 kts 121°
2026-04-22 14:48 42.57326 21.03302 1787 ft 3 kts 88°
2026-04-22 14:49 42.57311 21.03336 1787 ft 10 kts 144°
2026-04-22 14:49 42.57215 21.03351 1786 ft 14 kts 175°
2026-04-22 14:49 42.57115 21.03362 1784 ft 14 kts 175°
2026-04-22 14:49 42.57024 21.03372 1786 ft 12 kts 176°
2026-04-22 14:50 42.56947 21.03379 1786 ft 11 kts 176°
2026-04-22 14:50 42.56869 21.03386 1783 ft 12 kts 176°
2026-04-22 14:50 42.56782 21.03395 1781 ft 13 kts 175°
2026-04-22 14:50 42.56702 21.03404 1782 ft 10 kts 175°
2026-04-22 14:51 42.56638 21.03410 1782 ft 8 kts 176°
2026-04-22 14:51 42.56533 21.03420 1783 ft 24 kts 175°
2026-04-22 14:51 42.56370 21.03436 1785 ft 20 kts 175°
2026-04-22 14:51 42.56250 21.03449 1790 ft 15 kts 175°
2026-04-22 14:52 42.56155 21.03458 1792 ft 12 kts 176°
2026-04-22 14:52 42.56080 21.03467 1793 ft 10 kts 174°
2026-04-22 14:52 42.55983 21.03476 1796 ft 16 kts 178°
2026-04-22 14:52 42.55885 21.03485 1797 ft 13 kts 175°
2026-04-22 14:53 42.55810 21.03513 1797 ft 10 kts 137°
2026-04-22 14:53 42.55804 21.03597 1798 ft 8 kts 83°
2026-04-22 14:53 42.55809 21.03670 1799 ft 7 kts 86°
2026-04-22 14:53 42.55829 21.03729 1798 ft 10 kts 40°
2026-04-22 14:54 42.55917 21.03730 1796 ft 17 kts 355°
2026-04-22 14:54 42.56172 21.03701 1791 ft 70 kts 355°
2026-04-22 14:54 42.56893 21.03621 1784 ft 134 kts 355°
2026-04-22 14:54 42.57964 21.03523 1968 ft 167 kts 353°
2026-04-22 14:55 42.59110 21.03409 2845 ft 163 kts 355°
2026-04-22 14:55 42.60266 21.03282 3527 ft 175 kts 358°
2026-04-22 14:55 42.61563 21.03152 3934 ft 199 kts 358°
2026-04-22 14:55 42.63032 21.02993 4426 ft 223 kts 353°
2026-04-22 14:56 42.64457 21.02070 5302 ft 237 kts 320°
2026-04-22 14:56 42.65539 21.00338 6274 ft 244 kts 308°
2026-04-22 14:56 42.66468 20.98380 7190 ft 248 kts 304°
2026-04-22 14:56 42.67366 20.96396 8104 ft 251 kts 304°
2026-04-22 14:57 42.68305 20.94373 9024 ft 254 kts 303°
2026-04-22 14:57 42.68945 20.92119 9891 ft 261 kts 276°
2026-04-22 14:57 42.68709 20.89665 10648 ft 270 kts 249°
2026-04-22 14:57 42.67546 20.87582 11146 ft 287 kts 220°
2026-04-22 14:58 42.65935 20.85931 11940 ft 292 kts 218°
2026-04-22 14:58 42.64287 20.84285 12851 ft 294 kts 218°
2026-04-22 14:58 42.62629 20.82636 13744 ft 297 kts 219°
2026-04-22 14:58 42.60980 20.80983 14502 ft 300 kts 219°
2026-04-22 14:59 42.59298 20.79288 15262 ft 302 kts 219°
2026-04-22 14:59 42.57604 20.77578 16015 ft 305 kts 219°
2026-04-22 14:59 42.55899 20.75852 16770 ft 307 kts 219°
2026-04-22 14:59 42.54176 20.74113 17528 ft 309 kts 219°
2026-04-22 15:00 42.52437 20.72385 18264 ft 312 kts 216°
2026-04-22 15:00 42.50452 20.71075 18912 ft 321 kts 201°
2026-04-22 15:00 42.48259 20.70552 19507 ft 333 kts 187°
2026-04-22 15:00 42.45864 20.70904 19628 ft 362 kts 169°
2026-04-22 15:01 42.43425 20.72102 19772 ft 382 kts 163°
2026-04-22 15:01 42.40877 20.73437 19886 ft 400 kts 163°
2026-04-22 15:01 42.38231 20.74822 20023 ft 416 kts 163°
2026-04-22 15:01 42.35507 20.76248 20350 ft 424 kts 164°
2026-04-22 15:02 42.32726 20.77698 20808 ft 429 kts 165°
2026-04-22 15:02 42.29925 20.79148 21271 ft 433 kts 165°
2026-04-22 15:02 42.27135 20.80591 21732 ft 436 kts 166°
2026-04-22 15:02 42.24286 20.82063 22242 ft 440 kts 167°
2026-04-22 15:03 42.21411 20.83544 22741 ft 443 kts 167°
2026-04-22 15:03 42.18510 20.85032 23205 ft 446 kts 168°
2026-04-22 15:03 42.15596 20.86523 23650 ft 449 kts 168°
2026-04-22 15:03 42.12667 20.88019 24013 ft 452 kts 169°
2026-04-22 15:04 42.09725 20.89630 24362 ft 461 kts 163°
2026-04-22 15:04 42.06915 20.91715 24640 ft 468 kts 160°
2026-04-22 15:04 42.03954 20.93342 24940 ft 451 kts 176°
2026-04-22 15:04 42.00904 20.93800 25246 ft 435 kts 191°
2026-04-22 15:05 41.98884 20.93574 25440 ft 426 kts 199°
2026-04-22 15:05 41.96045 20.92626 25733 ft 415 kts 209°
2026-04-22 15:05 41.93475 20.91091 26006 ft 406 kts 218°
2026-04-22 15:05 41.91179 20.88961 26292 ft 397 kts 228°
2026-04-22 15:06 41.89262 20.86348 26595 ft 391 kts 236°
2026-04-22 15:06 41.87446 20.83602 26884 ft 393 kts 236°
2026-04-22 15:06 41.85621 20.80848 27142 ft 395 kts 236°
2026-04-22 15:06 41.83782 20.78084 27413 ft 397 kts 236°
2026-04-22 15:07 41.81936 20.75314 27663 ft 399 kts 236°
2026-04-22 15:07 41.80081 20.72530 27825 ft 401 kts 236°
2026-04-22 15:07 41.78246 20.69773 28069 ft 402 kts 237°
2026-04-22 15:07 41.76379 20.66975 28316 ft 404 kts 237°
2026-04-22 15:08 41.74505 20.64179 28510 ft 404 kts 237°
2026-04-22 15:08 41.72625 20.61382 28763 ft 404 kts 237°
2026-04-22 15:08 41.70794 20.58545 29036 ft 398 kts 242°
2026-04-22 15:08 41.69376 20.55428 29333 ft 386 kts 252°
2026-04-22 15:09 41.68467 20.52095 29653 ft 377 kts 262°
2026-04-22 15:09 41.68068 20.48658 30031 ft 370 kts 271°
2026-04-22 15:09 41.68152 20.45278 30342 ft 366 kts 279°
2026-04-22 15:09 41.68610 20.41941 30599 ft 365 kts 282°
2026-04-22 15:10 41.69105 20.38592 30823 ft 366 kts 282°
2026-04-22 15:10 41.69595 20.35244 31047 ft 367 kts 282°
2026-04-22 15:10 41.70083 20.31878 31264 ft 368 kts 282°
2026-04-22 15:10 41.70570 20.28500 31441 ft 369 kts 282°
2026-04-22 15:11 41.71048 20.25160 31632 ft 370 kts 282°
2026-04-22 15:11 41.71534 20.21764 31842 ft 371 kts 282°
2026-04-22 15:11 41.72021 20.18358 32072 ft 372 kts 282°
2026-04-22 15:11 41.72509 20.14956 32287 ft 373 kts 282°
2026-04-22 15:12 41.72998 20.11538 32543 ft 374 kts 282°
2026-04-22 15:12 41.73485 20.08113 32820 ft 374 kts 282°
2026-04-22 15:12 41.73964 20.04716 33074 ft 376 kts 282°
2026-04-22 15:12 41.74450 20.01273 33324 ft 376 kts 282°
2026-04-22 15:13 41.74938 19.97825 33558 ft 377 kts 282°
2026-04-22 15:13 41.75429 19.94378 33809 ft 377 kts 282°
2026-04-22 15:13 41.75923 19.90911 34046 ft 378 kts 282°
2026-04-22 15:13 41.76411 19.87454 34248 ft 378 kts 282°
2026-04-22 15:14 41.76896 19.83987 34450 ft 379 kts 282°
2026-04-22 15:14 41.77382 19.80507 34659 ft 379 kts 282°
2026-04-22 15:14 41.77858 19.77077 34861 ft 380 kts 282°
2026-04-22 15:14 41.78341 19.73597 35027 ft 381 kts 282°
2026-04-22 15:15 41.78825 19.70105 35205 ft 382 kts 282°
2026-04-22 15:15 41.79311 19.66595 35422 ft 382 kts 282°
2026-04-22 15:15 41.79800 19.63078 35629 ft 383 kts 282°
2026-04-22 15:15 41.80285 19.59568 35816 ft 383 kts 282°
2026-04-22 15:16 41.80769 19.56050 36011 ft 384 kts 282°
2026-04-22 15:16 41.81246 19.52567 36218 ft 384 kts 282°
2026-04-22 15:16 41.81728 19.49037 36422 ft 385 kts 282°
2026-04-22 15:16 41.82210 19.45500 36581 ft 386 kts 282°
2026-04-22 15:17 41.82693 19.41960 36727 ft 386 kts 282°
2026-04-22 15:17 41.83176 19.38414 36887 ft 387 kts 282°
2026-04-22 15:17 41.83659 19.34857 37039 ft 388 kts 282°
2026-04-22 15:17 41.84142 19.31290 37191 ft 388 kts 282°
2026-04-22 15:18 41.84626 19.27724 37346 ft 389 kts 282°
2026-04-22 15:18 41.85110 19.24156 37499 ft 389 kts 282°
2026-04-22 15:18 41.85593 19.20580 37647 ft 390 kts 282°
2026-04-22 15:18 41.86075 19.16986 37789 ft 390 kts 282°
2026-04-22 15:19 41.86550 19.13401 37959 ft 390 kts 282°
2026-04-22 15:19 41.87025 19.09808 38005 ft 392 kts 282°
2026-04-22 15:19 41.87980 19.02605 38001 ft 391 kts 282°
2026-04-22 15:20 41.88926 18.95459 38008 ft 391 kts 282°
2026-04-22 15:20 41.89871 18.88271 38003 ft 391 kts 282°
2026-04-22 15:21 41.90814 18.81070 38004 ft 390 kts 282°
2026-04-22 15:21 41.91743 18.73917 38010 ft 391 kts 282°
2026-04-22 15:22 41.93187 18.66923 38014 ft 389 kts 296°
2026-04-22 15:22 41.96386 18.61063 38013 ft 392 kts 310°
2026-04-22 15:23 42.00116 18.55687 38011 ft 393 kts 310°
2026-04-22 15:23 42.03813 18.50315 38004 ft 394 kts 310°
2026-04-22 15:24 42.07535 18.44893 38009 ft 394 kts 310°
2026-04-22 15:24 42.11262 18.39468 38000 ft 394 kts 310°
2026-04-22 15:25 42.14993 18.34035 38008 ft 395 kts 310°
2026-04-22 15:25 42.18723 18.28584 38003 ft 396 kts 310°
2026-04-22 15:26 42.22463 18.23119 38006 ft 396 kts 310°
2026-04-22 15:26 42.26198 18.17636 38011 ft 397 kts 310°
2026-04-22 15:27 42.29924 18.12162 38010 ft 398 kts 310°
2026-04-22 15:27 42.33676 18.06638 38019 ft 398 kts 310°
2026-04-22 15:28 42.37422 18.01112 38016 ft 399 kts 310°
2026-04-22 15:28 42.41147 17.95613 38021 ft 399 kts 310°
2026-04-22 15:29 42.44904 17.90055 38020 ft 399 kts 310°
2026-04-22 15:30 42.50523 17.81715 38024 ft 399 kts 310°
2026-04-22 15:30 42.54260 17.76140 38026 ft 400 kts 310°
2026-04-22 15:31 42.57989 17.70587 38028 ft 400 kts 310°
2026-04-22 15:31 42.61732 17.64995 38030 ft 400 kts 310°
2026-04-22 15:32 42.65487 17.59381 38024 ft 401 kts 310°
2026-04-22 15:32 42.69220 17.53796 38029 ft 401 kts 310°
2026-04-22 15:33 42.72971 17.48164 38030 ft 402 kts 310°
2026-04-22 15:33 42.76727 17.42508 38030 ft 402 kts 310°
2026-04-22 15:34 42.80475 17.36845 38035 ft 403 kts 310°
2026-04-22 15:34 42.84235 17.31157 38041 ft 403 kts 310°
2026-04-22 15:35 42.87335 17.26465 38047 ft 404 kts 310°
2026-04-22 15:35 42.91735 17.19792 38045 ft 404 kts 310°
2026-04-22 15:36 42.95493 17.14075 38044 ft 404 kts 310°
2026-04-22 15:36 42.99230 17.08386 38046 ft 405 kts 310°
2026-04-22 15:37 43.03000 17.02642 38047 ft 405 kts 310°
2026-04-22 15:37 43.06763 16.96899 38046 ft 405 kts 310°
2026-04-22 15:38 43.10488 16.91189 38049 ft 404 kts 310°
2026-04-22 15:38 43.16107 16.82549 38050 ft 404 kts 310°
2026-04-22 15:39 43.19849 16.76786 38047 ft 404 kts 310°
2026-04-22 15:39 43.23599 16.71009 38046 ft 405 kts 310°
2026-04-22 15:40 43.27315 16.65258 38048 ft 406 kts 310°
2026-04-22 15:40 43.31064 16.59445 38051 ft 406 kts 310°
2026-04-22 15:41 43.34818 16.53626 38057 ft 407 kts 310°
2026-04-22 15:41 43.38578 16.47791 38067 ft 407 kts 310°
2026-04-22 15:42 43.42302 16.41978 38066 ft 407 kts 310°
2026-04-22 15:42 43.46049 16.36122 38065 ft 407 kts 310°
2026-04-22 15:43 43.50091 16.30649 38060 ft 410 kts 322°
2026-04-22 15:43 43.52548 16.28615 37811 ft 414 kts 330°
2026-04-22 15:43 43.55200 16.27004 37547 ft 416 kts 333°
2026-04-22 15:44 43.57811 16.25423 37288 ft 416 kts 332°
2026-04-22 15:44 43.60451 16.23776 37032 ft 416 kts 332°
2026-04-22 15:44 43.63083 16.22107 36773 ft 415 kts 332°
2026-04-22 15:44 43.65709 16.20434 36517 ft 415 kts 331°
2026-04-22 15:45 43.68339 16.18758 36278 ft 415 kts 331°
2026-04-22 15:45 43.70964 16.17089 36035 ft 415 kts 332°
2026-04-22 15:45 43.73591 16.15426 35791 ft 415 kts 332°
2026-04-22 15:45 43.76223 16.13770 35552 ft 414 kts 332°
2026-04-22 15:46 43.78812 16.12143 35318 ft 414 kts 332°
2026-04-22 15:46 43.81441 16.10488 35082 ft 414 kts 332°
2026-04-22 15:46 43.84064 16.08834 34853 ft 413 kts 332°
2026-04-22 15:46 43.86683 16.07176 34628 ft 413 kts 332°
2026-04-22 15:47 43.89305 16.05509 34405 ft 413 kts 332°
2026-04-22 15:47 43.91918 16.03844 34175 ft 413 kts 332°
2026-04-22 15:47 43.94497 16.02203 33935 ft 413 kts 332°
2026-04-22 15:47 43.97113 16.00539 33668 ft 412 kts 332°
2026-04-22 15:48 43.99716 15.98884 33399 ft 412 kts 332°
2026-04-22 15:48 44.02333 15.97217 33136 ft 412 kts 332°
2026-04-22 15:48 44.04944 15.95550 32872 ft 412 kts 332°
2026-04-22 15:48 44.07548 15.93889 32614 ft 412 kts 332°
2026-04-22 15:49 44.10119 15.92248 32367 ft 411 kts 332°
2026-04-22 15:49 44.12726 15.90583 32132 ft 412 kts 332°
2026-04-22 15:49 44.15336 15.88913 31790 ft 411 kts 332°
2026-04-22 15:49 44.17933 15.87247 31390 ft 411 kts 332°
2026-04-22 15:50 44.20533 15.85580 30972 ft 411 kts 332°
2026-04-22 15:50 44.23138 15.83908 30564 ft 411 kts 332°
2026-04-22 15:50 44.24861 15.82800 30300 ft 411 kts 332°
2026-04-22 15:50 44.28314 15.80576 29672 ft 412 kts 332°
2026-04-22 15:51 44.30930 15.78892 29185 ft 414 kts 333°
2026-04-22 15:51 44.32667 15.77772 28869 ft 416 kts 333°
2026-04-22 15:51 44.35309 15.76068 28393 ft 418 kts 333°
2026-04-22 15:51 44.38833 15.73797 27785 ft 421 kts 333°
2026-04-22 15:52 44.40642 15.72626 27472 ft 423 kts 333°
2026-04-22 15:52 44.43319 15.70890 27029 ft 425 kts 334°
2026-04-22 15:52 44.46008 15.69145 26592 ft 427 kts 334°
2026-04-22 15:52 44.48684 15.67409 26155 ft 430 kts 334°
2026-04-22 15:53 44.51408 15.65640 25724 ft 432 kts 334°
2026-04-22 15:53 44.54148 15.63862 25308 ft 434 kts 334°
2026-04-22 15:53 44.56904 15.62072 24891 ft 436 kts 334°
2026-04-22 15:53 44.59638 15.60295 24482 ft 439 kts 335°
2026-04-22 15:54 44.62416 15.58488 24077 ft 440 kts 335°
2026-04-22 15:54 44.65183 15.56685 23659 ft 438 kts 335°
2026-04-22 15:54 44.67945 15.54882 23183 ft 436 kts 335°
2026-04-22 15:54 44.70695 15.53085 22705 ft 434 kts 335°
2026-04-22 15:55 44.73432 15.51292 22234 ft 431 kts 335°
2026-04-22 15:55 44.76143 15.49512 21774 ft 428 kts 335°
2026-04-22 15:55 44.78834 15.47742 21320 ft 426 kts 335°
2026-04-22 15:55 44.81509 15.45979 20849 ft 423 kts 335°
2026-04-22 15:56 44.84171 15.44226 20425 ft 421 kts 336°
2026-04-22 15:56 44.86789 15.42504 20022 ft 419 kts 336°
2026-04-22 15:56 44.89435 15.40766 19614 ft 417 kts 336°
2026-04-22 15:56 44.92067 15.39035 19224 ft 415 kts 336°
2026-04-22 15:57 44.94680 15.37314 18904 ft 414 kts 336°
2026-04-22 15:57 44.97289 15.35595 18610 ft 412 kts 336°
2026-04-22 15:57 44.99888 15.33877 18296 ft 411 kts 336°
2026-04-22 15:57 45.02442 15.32182 17969 ft 410 kts 336°
2026-04-22 15:58 45.05015 15.30467 17637 ft 408 kts 336°
2026-04-22 15:58 45.07584 15.28755 17307 ft 406 kts 336°
2026-04-22 15:58 45.10137 15.27058 16988 ft 405 kts 336°
2026-04-22 15:58 45.12687 15.25368 16668 ft 403 kts 336°
2026-04-22 15:59 45.15230 15.23683 16351 ft 402 kts 336°
2026-04-22 15:59 45.17758 15.22003 16031 ft 400 kts 336°
2026-04-22 15:59 45.20279 15.20324 15725 ft 399 kts 336°
2026-04-22 15:59 45.22760 15.18667 15421 ft 398 kts 336°
2026-04-22 16:00 45.25265 15.16991 15121 ft 397 kts 336°
2026-04-22 16:00 45.27759 15.15322 14812 ft 395 kts 336°
2026-04-22 16:00 45.30248 15.13655 14517 ft 394 kts 337°
2026-04-22 16:00 45.32725 15.11994 14227 ft 392 kts 337°
2026-04-22 16:01 45.35158 15.10363 13927 ft 391 kts 337°
2026-04-22 16:01 45.37623 15.08712 13593 ft 390 kts 337°
2026-04-22 16:01 45.40070 15.07071 13269 ft 388 kts 337°
2026-04-22 16:01 45.42544 15.05587 12944 ft 384 kts 343°
2026-04-22 16:02 45.45133 15.04743 12624 ft 380 kts 354°
2026-04-22 16:02 45.47756 15.04576 12307 ft 376 kts
2026-04-22 16:02 45.50331 15.05067 11991 ft 373 kts 13°
2026-04-22 16:02 45.52793 15.06190 11695 ft 371 kts 22°
2026-04-22 16:03 45.55070 15.07900 11422 ft 369 kts 32°
2026-04-22 16:03 45.57112 15.10133 11139 ft 369 kts 39°
2026-04-22 16:03 45.59025 15.12495 10861 ft 367 kts 39°
2026-04-22 16:03 45.60947 15.14876 10584 ft 360 kts 40°
2026-04-22 16:04 45.62792 15.17171 10318 ft 343 kts 39°
2026-04-22 16:04 45.64543 15.19358 10121 ft 326 kts 39°
2026-04-22 16:04 45.66209 15.21440 9928 ft 310 kts 39°
2026-04-22 16:04 45.67790 15.23423 9747 ft 296 kts 39°
2026-04-22 16:05 45.69305 15.25326 9545 ft 283 kts 39°
2026-04-22 16:05 45.70764 15.27130 9366 ft 271 kts 36°
2026-04-22 16:05 45.72331 15.28513 9168 ft 261 kts 24°
2026-04-22 16:05 45.74038 15.29355 8953 ft 259 kts 13°
2026-04-22 16:06 45.75829 15.29666 8744 ft 260 kts
2026-04-22 16:06 45.77630 15.29427 8536 ft 261 kts 350°
2026-04-22 16:06 45.79343 15.28648 8325 ft 263 kts 338°
2026-04-22 16:06 45.80931 15.27327 8124 ft 265 kts 326°
2026-04-22 16:07 45.82291 15.25517 7969 ft 269 kts 314°
2026-04-22 16:07 45.83420 15.23357 7808 ft 271 kts 309°
2026-04-22 16:07 45.84527 15.21170 7643 ft 270 kts 309°
2026-04-22 16:07 45.85637 15.18988 7495 ft 271 kts 310°
2026-04-22 16:08 45.86753 15.16803 7337 ft 271 kts 310°
2026-04-22 16:08 45.87851 15.14649 7186 ft 270 kts 309°
2026-04-22 16:08 45.88961 15.12467 7026 ft 270 kts 309°
2026-04-22 16:08 45.90070 15.10281 6873 ft 270 kts 309°
2026-04-22 16:09 45.91175 15.08099 6724 ft 269 kts 309°
2026-04-22 16:09 45.92274 15.05922 6564 ft 269 kts 309°
2026-04-22 16:09 45.93372 15.03744 6407 ft 269 kts 309°
2026-04-22 16:09 45.94453 15.01585 6247 ft 270 kts 309°
2026-04-22 16:10 45.95532 14.99379 6089 ft 270 kts 308°
2026-04-22 16:10 45.96600 14.97170 5934 ft 269 kts 308°
2026-04-22 16:10 45.97668 14.94961 5776 ft 269 kts 308°
2026-04-22 16:10 45.98739 14.92744 5612 ft 269 kts 308°
2026-04-22 16:11 45.99804 14.90540 5452 ft 268 kts 308°
2026-04-22 16:11 46.00764 14.88544 5309 ft 267 kts 308°
2026-04-22 16:11 46.01827 14.86340 5151 ft 268 kts 308°
2026-04-22 16:11 46.02876 14.84168 5003 ft 268 kts 308°
2026-04-22 16:12 46.03942 14.81960 4843 ft 268 kts 308°
2026-04-22 16:12 46.04994 14.79778 4681 ft 260 kts 308°
2026-04-22 16:12 46.06003 14.77678 4518 ft 249 kts 308°
2026-04-22 16:12 46.06969 14.75669 4423 ft 238 kts 309°
2026-04-22 16:13 46.07931 14.73759 4339 ft 232 kts 311°
2026-04-22 16:13 46.08876 14.71945 4258 ft 222 kts 311°
2026-04-22 16:13 46.09782 14.70222 4175 ft 215 kts 310°
2026-04-22 16:13 46.10667 14.68519 4073 ft 207 kts 310°
2026-04-22 16:14 46.11510 14.66886 4008 ft 199 kts 310°
2026-04-22 16:14 46.12326 14.65307 4002 ft 195 kts 310°
2026-04-22 16:14 46.13142 14.63726 3943 ft 196 kts 310°
2026-04-22 16:14 46.13946 14.62163 3765 ft 192 kts 310°
2026-04-22 16:15 46.14739 14.60625 3498 ft 190 kts 310°
2026-04-22 16:15 46.15527 14.59093 3226 ft 188 kts 311°
2026-04-22 16:15 46.16278 14.57629 2975 ft 173 kts 311°
2026-04-22 16:15 46.16954 14.56313 2765 ft 160 kts 309°
2026-04-22 16:16 46.17595 14.55067 2522 ft 150 kts 308°
2026-04-22 16:16 46.18207 14.53871 2278 ft 147 kts 306°
2026-04-22 16:16 46.18809 14.52690 2100 ft 145 kts 306°
2026-04-22 16:16 46.19412 14.51524 1904 ft 147 kts 306°
2026-04-22 16:17 46.20020 14.50348 1716 ft 146 kts 306°
2026-04-22 16:17 46.20622 14.49164 1520 ft 146 kts 303°
2026-04-22 16:17 46.21226 14.47990 1328 ft 147 kts 304°
2026-04-22 16:17 46.21822 14.46819 1223 ft 135 kts 306°
2026-04-22 16:18 46.22285 14.45920 1250 ft 88 kts 307°
2026-04-22 16:18 46.22561 14.45426 1249 ft 33 kts 322°
2026-04-22 16:18 46.22749 14.45335 1259 ft 21 kts 345°
2026-04-22 16:18 46.22851 14.45324 1261 ft 12 kts 21°
2026-04-22 16:19 46.22917 14.45393 1258 ft 11 kts 37°
2026-04-22 16:19 46.22964 14.45390 1265 ft 6 kts 312°
2026-04-22 16:19 46.22985 14.45346 1263 ft 5 kts 306°
2026-04-22 16:19 46.23006 14.45325 1261 ft 3 kts 358°
2026-04-22 16:20 46.23018 14.45337 1261 ft 2 kts 36°
2026-04-22 16:20 46.23027 14.45347 1258 ft 2 kts 35°
2026-04-22 16:20 46.23037 14.45357 1258 ft 4 kts 36°
2026-04-22 16:20 46.23050 14.45371 1260 ft 0 kts 37°
2026-04-22 16:21 46.23051 14.45372 1260 ft 0 kts 35°